This demonstration page uses our WeatherBlox Daily Observations layout. Learn more.

Left ArrowRight Arrow

39.92423, -83.80882

Hourly Observations for July 28, 2020

Temp ( °F °C ) Dew Point ( °F °C ) Humidity (%) Winds ( mph kmh ) Pressure ( in mb ) Visibility ( mi km ) Precip ( " mm )
12:56 am 00:56 Cloudy 71 21.7 71 21.7 100 100 W 9 15 29.93 1013 10 16 N/A
1:56 am 01:56 Cloudy 71 21.7 71 21.7 100 100 WSW 7 11 29.92 1013 8 13 N/A
2:56 am 02:56 Cloudy 71 21.7 71 21.7 100 100 WSW 6 9 29.91 1013 7 11 N/A
3:37 am 03:37 Cloudy with Light Rain 72 22 72 22 100 100 W 7 11 29.89 1012 4 6 0.01 0.25
3:56 am 03:56 Cloudy with Mist and Fog 71 21.7 71 21.7 100 100 WNW 7 11 29.91 1013 5 8 0.02 0.51
4:20 am 04:20 Cloudy with Light Rain 72 22 72 22 100 100 NNW 7 11 29.89 1012 10 16 0.05 1.27
4:56 am 04:56 Mostly Clear 70 21.1 70 21.1 100 100 WNW 5 7 29.92 1013 10 16 0.19 4.83
5:56 am 05:56 Mostly Cloudy 69 20.6 69 20.6 100 100 N N/A 29.95 1014 10 16 N/A
6:56 am 06:56 Partly Cloudy 69 20.6 69 20.6 100 100 NW 3 6 29.97 1015 10 16 N/A
7:56 am 07:56 Sunny 71 21.7 71 21.7 100 100 NW 5 7 29.99 1016 10 16 0.02 0.51
8:56 am 08:56 Sunny 73 22.8 69 20.6 87 87 NW 3 6 30.00 1016 9 14 0.04 1.02
9:56 am 09:56 Sunny 75 23.9 67 19.4 76 76 WNW 5 7 30.01 1016 10 16 N/A
10:56 am 10:56 Sunny 77 25 66 18.9 69 69 N N/A 30.01 1016 10 16 N/A
11:56 am 11:56 Sunny 79 26.1 65 18.3 62 62 VRB 5 7 30.01 1016 10 16 N/A
12:56 pm 12:56 Sunny 80 26.7 64 17.8 58 58 VRB 3 6 30.01 1016 10 16 N/A
1:56 pm 13:56 Sunny 82 27.8 62 16.7 51 51 NW 9 15 29.98 1015 10 16 N/A
2:56 pm 14:56 Sunny 83 28.3 64 17.8 53 53 WNW 9 15 29.97 1015 10 16 N/A
3:56 pm 15:56 Sunny 83 28.3 62 16.7 49 49 VRB 5 7 29.96 1015 10 16 N/A
4:56 pm 16:56 Sunny 84 28.9 63 17.2 49 49 NW 13 20 29.96 1015 10 16 N/A
5:56 pm 17:56 Sunny 83 28.3 62 16.7 49 49 WNW 9 15 29.96 1014 10 16 N/A
6:56 pm 18:56 Sunny 81 27.2 62 16.7 53 53 NNW 9 15 29.95 1014 10 16 N/A
7:56 pm 19:56 Sunny 80 26.7 63 17.2 56 56 NW 7 11 29.95 1014 10 16 N/A
8:56 pm 20:56 Clear 74 23.3 66 18.9 76 76 NW 3 6 29.95 1014 10 16 N/A
9:56 pm 21:56 Clear 69 20.6 69 20.6 100 100 N N/A 29.97 1015 10 16 N/A
10:56 pm 22:56 Clear 67 19.4 67 19.4 100 100 SW 3 6 29.97 1015 10 16 N/A
11:56 pm 23:56 Clear 66 18.9 66 18.9 100 100 N N/A 29.98 1015 10 16 N/A

Powered by AerisWeather